Regional Weather Roundup
Issued by NWS

Home | Current Version | Previous Version | Graphics & Text | Print | Product List | Glossary On
Versions: 1 2 3 4 5 6 7 8 9 10 11 12 13 14 15 16 17 18 19 20 21 22 23 24 25 26 27 28 29 30 31 32 33 34 35 36 37 38 39 40 41 42 43 44 45 46 47 48 49 50
000
ASUS43 KIND 211900
RWRIN

WEATHER ROUNDUP FOR INDIANA
NATIONAL WEATHER SERVICE INDIANAPOLIS IN
300 PM EDT THU SEP 21 2017

NOTE: "FAIR" INDICATES FEW OR NO CLOUDS BELOW 12,000 FEET WITH NO
SIGNIFICANT WEATHER AND/OR OBSTRUCTIONS TO VISIBILITY.

* - STATION DOES NOT REPORT WEATHER SUCH AS PRECIPITATION OR FOG.

+ - STATION NOT QUALITY CONTROLLED BY THE NATIONAL WEATHER SERVICE.
    USE DATA WITH CAUTION...ESPECIALLY DEWPOINT AND RELATIVE
    HUMIDITY OBSERVATIONS.

INZ001>003-010>013-019-020-212000-
NORTHWEST INDIANA

CITY           SKY/WX    TMP DP  RH WIND       PRES   REMARKS
GARY /AIRPORT/ MOSUNNY   91  66  43 S8        30.02F
KNOX *+        MOSUNNY   88  72  58 SW7       30.02F
MICHIGAN CITY+ SUNNY     90  72  55 SW6       30.03F HX  96
MONTICELLO +   SUNNY     89  71  53 S6        30.02F HX  95
RENSSELAER +   MOSUNNY   90  63  40 SW6       30.03F

$$

LMZ046-743>745-212000-
SOUTHERN LAKE MICHIGAN

STATION/POSITION TIME  TEMP    WIND        PRES    WAVE
                       AIR SEA DIR/SP/G            HT
                 (UTC) (F)     (DEG/KT/KT) (MB)    (FT)
BURNS HARBOR     1840   88     200/  7/ 10 1016.6F
MICHIGAN CITY    1830   87     190/  6/  8   N/A
5NW MICH CITY    1850   80 71  320/  6/  6   N/A     0

$$

INZ004-005-014>016-021>024-212000-
NORTH CENTRAL INDIANA

CITY           SKY/WX    TMP DP  RH WIND       PRES   REMARKS
ELKHART        MOSUNNY   90  73  58 S6        30.03F HX  98
GOSHEN         MOSUNNY   88  70  55 S6        30.04F
SOUTH BEND     SUNNY     88  74  63 S7        30.04F HX  96
WARSAW +       SUNNY     88  72  58 S5        30.05F

$$

INZ006>009-017-018-025>027-212000-
NORTHEAST INDIANA

CITY           SKY/WX    TMP DP  RH WIND       PRES   REMARKS
AUBURN +       MOSUNNY   88  66  48 CALM      30.06F
FORT WAYNE     MOSUNNY   87  69  54 S7        30.06F
KENDALLVILLE + PTSUNNY   88  71  56 SW7       30.07F

$$

INZ028-029-035-036-043>045-051>053-212000-
WEST CENTRAL INDIANA

CITY           SKY/WX    TMP DP  RH WIND       PRES   REMARKS
GREENCASTLE +  SUNNY     90  68  48 S3        30.06F
LAFAYETTE      CLOUDY    90  72  55 S6        30.02F HX  97
TERRE HAUTE    SUNNY     93  67  42 SW12      30.03F HX  96

$$

INZ030>032-037>040-046>048-054>057-064-065-212000-
CENTRAL INDIANA

CITY           SKY/WX    TMP DP  RH WIND       PRES   REMARKS
COLUMBUS       MOSUNNY   88  63  42 SW9       30.06F
GREENWOOD *+   MOSUNNY   95  74  51 S6        30.06F HX 106
INDIANAPOLIS   MOSUNNY   90  69  50 S7        30.05F
-EAGLE CREEK   MOSUNNY   91  67  44 VRB3      30.04F
KOKOMO +       SUNNY     89  71  55 S7        30.06F HX  95
MT COMFORT *+    N/A    N/A N/A N/A MISG        N/A
SHELBYVILLE    MOSUNNY   90  66  45 CALM      30.05F

$$

INZ033-034-041-042-049-050-058-059-212000-
EAST CENTRAL INDIANA

CITY           SKY/WX    TMP DP  RH WIND       PRES   REMARKS
MUNCIE         MOSUNNY   91  68  46 W7        30.07F HX  95
RICHMOND +     SUNNY     84  68  58 SW6       30.10F

$$

INZ060-061-067>069-081>083-085>088-212000-
SOUTHWEST INDIANA

CITY           SKY/WX    TMP DP  RH WIND       PRES   REMARKS
EVANSVILLE     SUNNY     90  70  51 S3        30.04F HX  95
HUNTINGBURG +    N/A    N/A N/A N/A MISG        N/A

$$

INZ062-063-066-070>080-084-089>092-212000-
SOUTH CENTRAL AND SOUTHEAST INDIANA

CITY           SKY/WX    TMP DP  RH WIND       PRES   REMARKS
BLOOMINGTON    MOSUNNY   90  67  46 SE9       30.05F
MADISON *+     SUNNY     88  68  51 SW3       30.09F
SEYMOUR +      SUNNY     91  68  46 CALM      30.05F HX  95

$$





USA.gov is the U.S. government's official web portal to all federal, state and local government web resources and services.